Location: Treviso
(45.6669°N, 12.2430°E)
Time: 05:59:42
(UTC+02:00)

CUBESAT XI-V - Pass Details

Date: 26 April 2019
Orbit: 668 x 694 km, 98.0° (Epoch: 25 May)

Event Time Altitude Azimuth Distance (km) Brightness Sun altitude
Exits shadow 03:20:49 28° 136° (SE) 1,271 ? -23.9°
Maximum altitude 03:23:02 55° 72° (ENE) 830 ? -23.7°
Drops below altitude 10° 03:27:36 10° 355° (N) 2,139 ? -23.2°
Sets 03:29:53 0° 351° (N) 3,055 ? -22.9°
